Regional Weather Roundup
Issued by NWS

Home | Current Version | Previous Version | Text Only | Print | Product List | Glossary Off
Versions: 1 2 3 4 5 6 7 8 9 10 11 12 13 14 15 16 17 18 19 20 21 22 23 24 25 26 27 28 29 30 31 32 33 34 35 36 37 38 39 40 41 42 43 44 45 46 47 48 49 50

000
ASUS45 KPSR 041900
RWRAZ

ARIZONA REGIONAL HOURLY WEATHER ROUNDUP
NATIONAL WEATHER SERVICE PHOENIX AZ
1200 PM MST MON MAY 04 2015

NOTE: FAIR INDICATES FEW OR NO CLOUDS BELOW 12,000 FEET WITH NO
SIGNIFICANT WEATHER AND/OR OBSTRUCTIONS TO VISIBILITY.

AZZ001>003-036-042000-
NORTHWEST ARIZONA

CITY           SKY/WX    TMP DP  RH WIND       PRES   REMARKS
KINGMAN        CLOUDY    71  41  33 SW13G20   29.95F
$$

AZZ004>008-015-016-018-042000-
NORTH CENTRAL ARIZONA

CITY           SKY/WX    TMP DP  RH WIND       PRES   REMARKS
GRAND CANYON   LGT RAIN  49  40  71 SE8       30.05F
WILLIAMS       CLOUDY    48  45  87 CALM      30.13F
PRESCOTT       LGT RAIN  54  46  74 N8        30.03F
FLAGSTAFF      NOT AVBL
PAYSON         PTSUNNY   64  45  48 S12       30.01F
PAGE           PTSUNNY   71  38  29 CALM      29.93F
$$

AZZ009>014-017-042000-
NORTHEAST ARIZONA

CITY           SKY/WX    TMP DP  RH WIND       PRES   REMARKS
WINSLOW        NOT AVBL
SAINT JOHNS    CLOUDY    56  47  71 N12       30.01F
WINDOW ROCK    MOSUNNY   62  39  42 NE10G17   30.05F
$$

AZZ023-042000-
GREATER PHOENIX AREA

CITY           SKY/WX    TMP DP  RH WIND       PRES   REMARKS
PHOENIX        MOSUNNY   81  53  37 SW6       29.85F
GLENDALE       MOSUNNY   79  52  38 NW6       29.88F
DEER VALLEY    MOSUNNY   77  51  40 SW9       29.86F
SCOTTSDALE     MOSUNNY   78  52  40 SW9       29.87F
MESA-FALCON    MOSUNNY   79  52  38 W9        29.86F
MESA-GATEWAY   MOSUNNY   79  54  41 SW9       29.88F
CHANDLER       MOSUNNY   79  52  38 SW6       29.87F
$$

AZZ027-028-042000-
SOUTHWEST MARICOPA COUNTY AND PINAL COUNTY

CITY           SKY/WX    TMP DP  RH WIND       PRES   REMARKS
CASA GRANDE    MOSUNNY   79  52  38 W6        29.86F
$$

AZZ503-504-507>509-042000-
SOUTHEAST ARIZONA

CITY           SKY/WX    TMP DP  RH WIND       PRES   REMARKS
TUCSON         MOSUNNY   77  49  37 W8        29.91F
RYAN FIELD       N/A     75  54  46 SW7       29.92F
NOGALES        MOSUNNY   74  42  31 SW16G23   29.96F
SAFFORD        MOSUNNY   79  44  28 SE9       29.87F
$$

AZZ020-021-025-026-031-042000-
SOUTHWEST ARIZONA

CITY           SKY/WX    TMP DP  RH WIND       PRES   REMARKS
YUMA           PTSUNNY   83  51  33 SE9       29.86F
$$

CAZ031-033-041-043-047-048-061-042000-
SOUTHERN CALIFORNIA

CITY           SKY/WX    TMP DP  RH WIND       PRES   REMARKS
DOWNTOWN L.A.  PTSUNNY   68  52  56 VRB3      29.97S
L.A. AIRPORT   PTSUNNY   62  51  67 W12       29.99S
SAN DIEGO      PTSUNNY   67  52  58 W13       30.00R
BURBANK        SUNNY     64  49  57 S7        29.97S
ONTARIO        PTSUNNY   65  48  54 VRB6      29.97S
RIVERSIDE      MOSUNNY   67  49  52 CALM      29.97S
PALM SPRINGS   SUNNY     83  47  28 VRB3      29.90F
EL CENTRO NAS  MOSUNNY   82  52  35 VRB7      29.86F
IMPERIAL       MOSUNNY   82  52  35 S6        29.84F
BLYTHE         MOSUNNY   82  53  36 S8        29.86F
$$

NVZ020-UTZ003-042000-
SOUTHERN NEVADA-UTAH

CITY           SKY/WX    TMP DP  RH WIND       PRES   REMARKS
LAS VEGAS      NOT AVBL
SALT LAKE CITY PTSUNNY   73  39  29 W7        29.91F
$$

NMZ009-TXZ055-042000-
NEW MEXICO-WEST TEXAS

CITY           SKY/WX    TMP DP  RH WIND       PRES   REMARKS
ALBUQUERQUE    PTSUNNY   74  36  25 SE12G21   29.98F
EL PASO        PTSUNNY   80  48  32 VRB3      29.89F
$$


........................KEY........................
SKY/WX - SKY CONDITION/WEATHER
TMP    - TEMPERATURE IN FAHRENHEIT
DP     - DEW POINT IN FAHRENHEIT
RH     - RELATIVE HUMIDITY IN PERCENT
WIND   - DIRECTION AND SPEED IN MILES PER HOUR (MPH)
VRB    - VARIABLE WIND DIRECTION
PRES   - MEAN SEA LEVEL PRESSURE IN INCHES OF MERCURY
         F - FALLING PRESSURE   R - RISING PRESSURE
         S - STEADY PRESSURE
VSB    - VISIBILITY IN MILES
HX     - HEAT INDEX IN FAHRENHEIT
WCI    - WIND CHILL INDEX IN FAHRENHEIT
TC     - TEMPERATURE IN CELSIUS WHICH IS ALSO KNOWN AS
         TEMPERATURE IN CENTIGRADE
AFB    - AIR FORCE BASE
         LUKE AFB IS LUKE AIR FORCE BASE
         DAVIS-MONTHAN IS DAVIS-MONTHAN AIR FORCE BASE
NAS    - NAVAL AIR STATION
         EL CENTRO NAS IS EL CENTRO NAVAL AIR STATION
N/A    - NOT AVAILABLE




USA.gov is the U.S. government's official web portal to all federal, state and local government web resources and services.